Wetterdaten: Freitag, 08.01.2016
Datum Zeit Temp. A. Feuchte A. Luftdruck Regen Wind Richtung Richtung Sonnenschein ET UV Solar Taupunkt Windchill Windben Empfang
08.01.2016 00:00 0,2 C 99 % 1002,9 hPa 0,0 l/m 2,7 km/h (1 Bft) NO 36 0 min 0,000 mm 0,0 UV-I 0 W/m 0,1 C 0,2 C 6,4 km/h (2 Bft) 100,00 %
08.01.2016 00:05 0,2 C 98 % 1002,8 hPa 0,0 l/m 0,7 km/h (0 Bft) NO 35 0 min 0,000 mm 0,0 UV-I 0 W/m -0,1 C 0,2 C 3,2 km/h (1 Bft) 100,00 %
08.01.2016 00:10 0,2 C 98 % 1003,0 hPa 0,0 l/m 0,5 km/h (0 Bft) NO 35 0 min 0,000 mm 0,0 UV-I 0 W/m -0,1 C 0,2 C 1,6 km/h (1 Bft) 100,00 %
08.01.2016 00:15 0,2 C 98 % 1003,1 hPa 0,0 l/m 0,1 km/h (0 Bft) NO 35 0 min 0,000 mm 0,0 UV-I 0 W/m -0,1 C 0,2 C 1,6 km/h (1 Bft) 100,00 %
08.01.2016 00:20 0,2 C 99 % 1003,1 hPa 0,0 l/m 1,1 km/h (1 Bft) NO 35 0 min 0,000 mm 0,0 UV-I 0 W/m 0,1 C 0,2 C 3,2 km/h (1 Bft) 100,00 %
08.01.2016 00:25 0,2 C 99 % 1003,3 hPa 0,0 l/m 1,8 km/h (1 Bft) O 86 0 min 0,000 mm 0,0 UV-I 0 W/m 0,1 C 0,2 C 4,8 km/h (1 Bft) 100,00 %
08.01.2016 00:30 0,2 C 99 % 1003,4 hPa 0,0 l/m 0,9 km/h (0 Bft) O 86 0 min 0,000 mm 0,0 UV-I 0 W/m 0,1 C 0,2 C 3,2 km/h (1 Bft) 98,43 %
08.01.2016 00:35 0,3 C 99 % 1003,4 hPa 0,0 l/m 0,6 km/h (0 Bft) O 86 0 min 0,000 mm 0,0 UV-I 0 W/m 0,2 C 0,3 C 1,6 km/h (1 Bft) 97,46 %
08.01.2016 00:40 0,3 C 99 % 1003,6 hPa 0,0 l/m 2,1 km/h (1 Bft) O 86 0 min 0,000 mm 0,0 UV-I 0 W/m 0,2 C 0,3 C 3,2 km/h (1 Bft) 99,15 %
08.01.2016 00:45 0,3 C 99 % 1003,5 hPa 0,0 l/m 1,9 km/h (1 Bft) O 86 0 min 0,000 mm 0,0 UV-I 0 W/m 0,2 C 0,3 C 4,8 km/h (1 Bft) 100,00 %
08.01.2016 00:50 0,3 C 99 % 1003,7 hPa 0,0 l/m 1,8 km/h (1 Bft) SO 129 0 min 0,000 mm 0,0 UV-I 0 W/m 0,2 C 0,3 C 6,4 km/h (2 Bft) 100,00 %
08.01.2016 00:55 0,3 C 99 % 1003,9 hPa 0,0 l/m 0,2 km/h (0 Bft) SO 129 0 min 0,000 mm 0,0 UV-I 0 W/m 0,2 C 0,3 C 1,6 km/h (1 Bft) 99,21 %
08.01.2016 01:00 0,3 C 99 % 1003,9 hPa 0,0 l/m 0,8 km/h (0 Bft) SO 129 0 min 0,000 mm 0,0 UV-I 0 W/m 0,2 C 0,3 C 3,2 km/h (1 Bft) 97,27 %
08.01.2016 01:05 0,3 C 98 % 1003,8 hPa 0,0 l/m 0,1 km/h (0 Bft) SO 129 0 min 0,000 mm 0,0 UV-I 0 W/m 0,0 C 0,3 C 1,6 km/h (1 Bft) 97,52 %
08.01.2016 01:10 0,3 C 99 % 1003,6 hPa 0,0 l/m 1,2 km/h (1 Bft) SO 129 0 min 0,000 mm 0,0 UV-I 0 W/m 0,2 C 0,3 C 4,8 km/h (1 Bft) 97,52 %
08.01.2016 01:15 0,3 C 98 % 1003,7 hPa 0,0 l/m 0,6 km/h (0 Bft) SO 129 0 min 0,000 mm 0,0 UV-I 0 W/m 0,0 C 0,3 C 3,2 km/h (1 Bft) 96,61 %
08.01.2016 01:20 0,3 C 99 % 1003,8 hPa 0,0 l/m 0,8 km/h (0 Bft) SO 128 0 min 0,000 mm 0,0 UV-I 0 W/m 0,2 C 0,3 C 3,2 km/h (1 Bft) 97,17 %
08.01.2016 01:25 0,3 C 98 % 1004,0 hPa 0,0 l/m 0,1 km/h (0 Bft) SO 128 0 min 0,000 mm 0,0 UV-I 0 W/m 0,0 C 0,3 C 1,6 km/h (1 Bft) 97,62 %
08.01.2016 01:30 0,2 C 98 % 1004,2 hPa 0,0 l/m 0,2 km/h (0 Bft) SO 128 0 min 0,000 mm 0,0 UV-I 0 W/m -0,1 C 0,2 C 3,2 km/h (1 Bft) 97,25 %
08.01.2016 01:35 0,3 C 98 % 1004,2 hPa 0,0 l/m 0,1 km/h (0 Bft) SO 128 0 min 0,000 mm 0,0 UV-I 0 W/m 0,0 C 0,3 C 1,6 km/h (1 Bft) 98,33 %
08.01.2016 01:40 0,3 C 98 % 1004,3 hPa 0,0 l/m 0,6 km/h (0 Bft) SO 129 0 min 0,000 mm 0,0 UV-I 0 W/m 0,0 C 0,3 C 3,2 km/h (1 Bft) 98,39 %
08.01.2016 01:45 0,4 C 99 % 1004,2 hPa 0,0 l/m 1,3 km/h (1 Bft) S-SO 161 0 min 0,000 mm 0,0 UV-I 0 W/m 0,3 C 0,4 C 6,4 km/h (2 Bft) 100,00 %
08.01.2016 01:50 0,4 C 99 % 1004,0 hPa 0,0 l/m 1,7 km/h (1 Bft) S-SO 162 0 min 0,000 mm 0,0 UV-I 0 W/m 0,3 C 0,4 C 6,4 km/h (2 Bft) 100,00 %
08.01.2016 01:55 0,7 C 99 % 1003,8 hPa 0,0 l/m 2,9 km/h (1 Bft) S 171 0 min 0,000 mm 0,0 UV-I 0 W/m 0,6 C 0,7 C 6,4 km/h (2 Bft) 98,55 %
08.01.2016 02:00 0,9 C 99 % 1004,0 hPa 0,0 l/m 1,2 km/h (1 Bft) S 177 0 min 0,000 mm 0,0 UV-I 0 W/m 0,8 C 0,9 C 3,2 km/h (1 Bft) 100,00 %
08.01.2016 02:05 0,7 C 99 % 1004,0 hPa 0,0 l/m 1,5 km/h (1 Bft) S 177 0 min 0,000 mm 0,0 UV-I 0 W/m 0,6 C 0,7 C 3,2 km/h (1 Bft) 100,00 %
08.01.2016 02:10 0,6 C 99 % 1004,2 hPa 0,0 l/m 1,2 km/h (1 Bft) S 177 0 min 0,000 mm 0,0 UV-I 0 W/m 0,5 C 0,6 C 3,2 km/h (1 Bft) 100,00 %
08.01.2016 02:15 0,6 C 99 % 1004,3 hPa 0,0 l/m 0,9 km/h (0 Bft) S 171 0 min 0,000 mm 0,0 UV-I 0 W/m 0,5 C 0,6 C 4,8 km/h (1 Bft) 100,00 %
08.01.2016 02:20 0,7 C 99 % 1004,3 hPa 0,0 l/m 1,1 km/h (1 Bft) S 173 0 min 0,000 mm 0,0 UV-I 0 W/m 0,6 C 0,7 C 3,2 km/h (1 Bft) 99,08 %
08.01.2016 02:25 0,8 C 99 % 1004,4 hPa 0,0 l/m 4,1 km/h (1 Bft) S-SW 197 0 min 0,000 mm 0,0 UV-I 0 W/m 0,7 C 0,8 C 12,9 km/h (3 Bft) 98,35 %
08.01.2016 02:30 1,6 C 99 % 1004,5 hPa 0,0 l/m 10,0 km/h (2 Bft) SW 234 0 min 0,000 mm 0,0 UV-I 0 W/m 1,5 C -1,7 C 16,1 km/h (3 Bft) 100,00 %
08.01.2016 02:35 2,4 C 99 % 1004,7 hPa 0,0 l/m 9,8 km/h (2 Bft) S 184 0 min 0,000 mm 0,0 UV-I 0 W/m 2,3 C -0,6 C 16,1 km/h (3 Bft) 99,17 %
08.01.2016 02:40 2,8 C 99 % 1004,8 hPa 0,0 l/m 11,8 km/h (2 Bft) SW 232 0 min 0,000 mm 0,0 UV-I 0 W/m 2,7 C -1,6 C 16,1 km/h (3 Bft) 99,15 %
08.01.2016 02:45 2,9 C 99 % 1005,0 hPa 0,0 l/m 11,9 km/h (2 Bft) W-SW 240 0 min 0,000 mm 0,0 UV-I 0 W/m 2,8 C -1,6 C 17,7 km/h (3 Bft) 96,58 %
08.01.2016 02:50 3,0 C 99 % 1005,0 hPa 0,0 l/m 10,4 km/h (2 Bft) SW 221 0 min 0,000 mm 0,0 UV-I 0 W/m 2,9 C -0,4 C 17,7 km/h (3 Bft) 98,26 %
08.01.2016 02:55 3,1 C 98 % 1005,1 hPa 0,0 l/m 7,8 km/h (2 Bft) S-SW 210 0 min 0,000 mm 0,0 UV-I 0 W/m 2,8 C 1,8 C 11,3 km/h (2 Bft) 99,13 %
08.01.2016 03:00 3,1 C 97 % 1005,2 hPa 0,2 l/m 8,6 km/h (2 Bft) W-SW 246 0 min 0,000 mm 0,0 UV-I 0 W/m 2,7 C 1,1 C 14,5 km/h (3 Bft) 98,20 %
08.01.2016 03:05 3,1 C 96 % 1005,3 hPa 0,0 l/m 12,5 km/h (3 Bft) SW 221 0 min 0,000 mm 0,0 UV-I 0 W/m 2,5 C -1,8 C 17,7 km/h (3 Bft) 98,43 %
08.01.2016 03:10 3,2 C 96 % 1005,4 hPa 0,0 l/m 11,5 km/h (2 Bft) SW 232 0 min 0,000 mm 0,0 UV-I 0 W/m 2,6 C -1,0 C 19,3 km/h (3 Bft) 97,44 %
08.01.2016 03:15 3,3 C 95 % 1005,2 hPa 0,0 l/m 12,3 km/h (3 Bft) SW 229 0 min 0,000 mm 0,0 UV-I 0 W/m 2,6 C -1,4 C 17,7 km/h (3 Bft) 95,54 %
08.01.2016 03:20 3,3 C 95 % 1005,3 hPa 0,0 l/m 11,1 km/h (2 Bft) SW 216 0 min 0,000 mm 0,0 UV-I 0 W/m 2,6 C -0,6 C 14,5 km/h (3 Bft) 97,58 %
08.01.2016 03:25 3,3 C 95 % 1005,5 hPa 0,0 l/m 11,6 km/h (2 Bft) SW 236 0 min 0,000 mm 0,0 UV-I 0 W/m 2,6 C -0,9 C 17,7 km/h (3 Bft) 95,73 %
08.01.2016 03:30 3,3 C 94 % 1005,5 hPa 0,0 l/m 13,2 km/h (3 Bft) SW 229 0 min 0,000 mm 0,0 UV-I 0 W/m 2,4 C -2,0 C 20,9 km/h (4 Bft) 96,33 %
08.01.2016 03:35 3,3 C 94 % 1005,6 hPa 0,2 l/m 14,3 km/h (3 Bft) SW 232 0 min 0,000 mm 0,0 UV-I 0 W/m 2,4 C -2,6 C 19,3 km/h (3 Bft) 97,56 %
08.01.2016 03:40 3,5 C 94 % 1005,7 hPa 0,0 l/m 14,1 km/h (3 Bft) SW 215 0 min 0,000 mm 0,0 UV-I 0 W/m 2,6 C -2,2 C 20,9 km/h (4 Bft) 97,39 %
08.01.2016 03:45 3,6 C 93 % 1005,7 hPa 0,0 l/m 11,8 km/h (2 Bft) SW 236 0 min 0,000 mm 0,0 UV-I 0 W/m 2,6 C -0,7 C 17,7 km/h (3 Bft) 96,43 %
08.01.2016 03:50 3,7 C 93 % 1005,8 hPa 0,0 l/m 13,2 km/h (3 Bft) SW 220 0 min 0,000 mm 0,0 UV-I 0 W/m 2,7 C -1,5 C 19,3 km/h (3 Bft) 100,00 %
08.01.2016 03:55 3,6 C 93 % 1006,0 hPa 0,2 l/m 12,6 km/h (3 Bft) SW 223 0 min 0,000 mm 0,0 UV-I 0 W/m 2,6 C -1,2 C 17,7 km/h (3 Bft) 98,39 %
08.01.2016 04:00 3,6 C 93 % 1005,9 hPa 0,0 l/m 11,1 km/h (2 Bft) SW 227 0 min 0,000 mm 0,0 UV-I 0 W/m 2,6 C -0,3 C 16,1 km/h (3 Bft) 100,00 %
08.01.2016 04:05 3,6 C 92 % 1005,9 hPa 0,0 l/m 11,2 km/h (2 Bft) SW 214 0 min 0,000 mm 0,0 UV-I 0 W/m 2,4 C -0,3 C 16,1 km/h (3 Bft) 97,94 %
08.01.2016 04:10 3,4 C 93 % 1006,0 hPa 0,0 l/m 10,8 km/h (2 Bft) SW 232 0 min 0,000 mm 0,0 UV-I 0 W/m 2,4 C -0,3 C 20,9 km/h (4 Bft) 100,00 %
08.01.2016 04:15 3,4 C 93 % 1005,9 hPa 0,0 l/m 13,9 km/h (3 Bft) SW 219 0 min 0,000 mm 0,0 UV-I 0 W/m 2,4 C -2,2 C 19,3 km/h (3 Bft) 100,00 %
08.01.2016 04:20 3,4 C 93 % 1005,9 hPa 0,0 l/m 14,3 km/h (3 Bft) W-SW 238 0 min 0,000 mm 0,0 UV-I 0 W/m 2,4 C -2,5 C 20,9 km/h (4 Bft) 97,44 %
08.01.2016 04:25 3,6 C 92 % 1005,9 hPa 0,2 l/m 14,0 km/h (3 Bft) SW 234 0 min 0,000 mm 0,0 UV-I 0 W/m 2,4 C -2,1 C 22,5 km/h (4 Bft) 99,19 %
08.01.2016 04:30 3,7 C 92 % 1005,9 hPa 0,0 l/m 12,7 km/h (3 Bft) W-SW 249 0 min 0,000 mm 0,0 UV-I 0 W/m 2,5 C -1,2 C 20,9 km/h (4 Bft) 100,00 %
08.01.2016 04:35 3,8 C 92 % 1006,0 hPa 0,0 l/m 13,7 km/h (3 Bft) SW 221 0 min 0,000 mm 0,0 UV-I 0 W/m 2,6 C -1,7 C 19,3 km/h (3 Bft) 99,17 %
08.01.2016 04:40 3,8 C 91 % 1006,0 hPa 0,2 l/m 13,3 km/h (3 Bft) S-SW 213 0 min 0,000 mm 0,0 UV-I 0 W/m 2,5 C -1,4 C 22,5 km/h (4 Bft) 99,11 %
08.01.2016 04:45 3,8 C 91 % 1006,0 hPa 0,0 l/m 16,0 km/h (3 Bft) SW 221 0 min 0,000 mm 0,0 UV-I 0 W/m 2,5 C -2,9 C 24,1 km/h (4 Bft) 96,49 %
08.01.2016 04:50 3,8 C 91 % 1005,8 hPa 0,0 l/m 15,8 km/h (3 Bft) SW 225 0 min 0,000 mm 0,0 UV-I 0 W/m 2,5 C -2,8 C 22,5 km/h (4 Bft) 100,00 %
08.01.2016 04:55 3,8 C 90 % 1005,9 hPa 0,0 l/m 14,6 km/h (3 Bft) S-SW 203 0 min 0,000 mm 0,0 UV-I 0 W/m 2,3 C -2,2 C 22,5 km/h (4 Bft) 99,21 %
08.01.2016 05:00 3,8 C 90 % 1006,0 hPa 0,2 l/m 16,5 km/h (3 Bft) W-SW 253 0 min 0,000 mm 0,0 UV-I 0 W/m 2,3 C -3,1 C 27,4 km/h (4 Bft) 99,11 %
08.01.2016 05:05 3,8 C 90 % 1006,1 hPa 0,0 l/m 18,7 km/h (3 Bft) W-SW 238 0 min 0,000 mm 0,0 UV-I 0 W/m 2,3 C -4,2 C 25,7 km/h (4 Bft) 94,92 %
08.01.2016 05:10 3,9 C 89 % 1006,1 hPa 0,0 l/m 16,4 km/h (3 Bft) W-SW 246 0 min 0,000 mm 0,0 UV-I 0 W/m 2,3 C -3,0 C 24,1 km/h (4 Bft) 99,10 %
08.01.2016 05:15 4,0 C 88 % 1006,1 hPa 0,2 l/m 17,7 km/h (3 Bft) S-SW 211 0 min 0,000 mm 0,0 UV-I 0 W/m 2,2 C -3,5 C 27,4 km/h (4 Bft) 99,19 %
08.01.2016 05:20 4,0 C 88 % 1006,1 hPa 0,0 l/m 18,7 km/h (3 Bft) W-SW 239 0 min 0,000 mm 0,0 UV-I 0 W/m 2,2 C -3,9 C 27,4 km/h (4 Bft) 99,17 %
08.01.2016 05:25 4,1 C 88 % 1006,3 hPa 0,0 l/m 17,7 km/h (3 Bft) SW 235 0 min 0,000 mm 0,0 UV-I 0 W/m 2,3 C -3,3 C 24,1 km/h (4 Bft) 96,40 %
08.01.2016 05:30 4,1 C 87 % 1006,4 hPa 0,0 l/m 17,3 km/h (3 Bft) SW 223 0 min 0,000 mm 0,0 UV-I 0 W/m 2,1 C -3,2 C 25,7 km/h (4 Bft) 97,52 %
08.01.2016 05:35 4,2 C 87 % 1006,5 hPa 0,2 l/m 16,8 km/h (3 Bft) SW 219 0 min 0,000 mm 0,0 UV-I 0 W/m 2,2 C -2,8 C 24,1 km/h (4 Bft) 97,32 %
08.01.2016 05:40 4,2 C 86 % 1006,5 hPa 0,0 l/m 14,1 km/h (3 Bft) SW 224 0 min 0,000 mm 0,0 UV-I 0 W/m 2,1 C -1,4 C 22,5 km/h (4 Bft) 97,50 %
08.01.2016 05:45 4,2 C 86 % 1006,6 hPa 0,0 l/m 13,3 km/h (3 Bft) W-SW 253 0 min 0,000 mm 0,0 UV-I 0 W/m 2,1 C -1,0 C 19,3 km/h (3 Bft) 97,32 %
08.01.2016 05:50 4,2 C 86 % 1006,7 hPa 0,2 l/m 14,1 km/h (3 Bft) SW 224 0 min 0,000 mm 0,0 UV-I 0 W/m 2,1 C -1,4 C 24,1 km/h (4 Bft) 97,32 %
08.01.2016 05:55 4,3 C 85 % 1006,8 hPa 0,0 l/m 15,4 km/h (3 Bft) W-SW 246 0 min 0,000 mm 0,0 UV-I 0 W/m 2,0 C -2,0 C 22,5 km/h (4 Bft) 95,24 %
08.01.2016 06:00 4,4 C 85 % 1006,8 hPa 0,2 l/m 14,3 km/h (3 Bft) W-SW 248 0 min 0,025 mm 0,0 UV-I 0 W/m 2,1 C -1,3 C 20,9 km/h (4 Bft) 96,61 %
08.01.2016 06:05 4,4 C 85 % 1006,8 hPa 0,0 l/m 13,3 km/h (3 Bft) W-SW 246 0 min 0,000 mm 0,0 UV-I 0 W/m 2,1 C -0,7 C 20,9 km/h (4 Bft) 99,15 %
08.01.2016 06:10 4,4 C 84 % 1006,8 hPa 0,2 l/m 14,9 km/h (3 Bft) W 270 0 min 0,000 mm 0,0 UV-I 0 W/m 1,9 C -1,6 C 20,9 km/h (4 Bft) 99,15 %
08.01.2016 06:15 4,4 C 84 % 1006,9 hPa 0,0 l/m 14,3 km/h (3 Bft) W-SW 257 0 min 0,000 mm 0,0 UV-I 0 W/m 1,9 C -1,3 C 20,9 km/h (4 Bft) 98,26 %
08.01.2016 06:20 4,4 C 84 % 1007,0 hPa 0,0 l/m 13,7 km/h (3 Bft) W-SW 248 0 min 0,000 mm 0,0 UV-I 0 W/m 1,9 C -0,9 C 19,3 km/h (3 Bft) 97,37 %
08.01.2016 06:25 4,4 C 84 % 1007,0 hPa 0,2 l/m 13,0 km/h (3 Bft) S-SW 213 0 min 0,000 mm 0,0 UV-I 0 W/m 1,9 C -0,5 C 20,9 km/h (4 Bft) 99,19 %
08.01.2016 06:30 4,3 C 84 % 1007,0 hPa 0,0 l/m 11,6 km/h (2 Bft) SW 222 0 min 0,000 mm 0,0 UV-I 0 W/m 1,8 C 0,2 C 17,7 km/h (3 Bft) 99,10 %
08.01.2016 06:35 4,2 C 84 % 1007,1 hPa 0,0 l/m 14,6 km/h (3 Bft) SW 229 0 min 0,000 mm 0,0 UV-I 0 W/m 1,7 C -1,7 C 20,9 km/h (4 Bft) 99,13 %
08.01.2016 06:40 4,2 C 85 % 1007,2 hPa 0,2 l/m 12,7 km/h (3 Bft) SW 223 0 min 0,000 mm 0,0 UV-I 0 W/m 1,9 C -0,6 C 17,7 km/h (3 Bft) 99,19 %
08.01.2016 06:45 4,2 C 84 % 1007,2 hPa 0,0 l/m 13,7 km/h (3 Bft) SW 227 0 min 0,000 mm 0,0 UV-I 0 W/m 1,7 C -1,2 C 22,5 km/h (4 Bft) 99,12 %
08.01.2016 06:50 4,1 C 85 % 1007,3 hPa 0,0 l/m 15,0 km/h (3 Bft) S-SW 212 0 min 0,000 mm 0,0 UV-I 0 W/m 1,8 C -2,0 C 20,9 km/h (4 Bft) 99,08 %
08.01.2016 06:55 4,2 C 85 % 1007,3 hPa 0,2 l/m 14,3 km/h (3 Bft) W-SW 239 0 min 0,000 mm 0,0 UV-I 0 W/m 1,9 C -1,5 C 27,4 km/h (4 Bft) 99,17 %
08.01.2016 07:00 4,2 C 85 % 1007,5 hPa 0,0 l/m 13,8 km/h (3 Bft) SW 230 0 min 0,026 mm 0,0 UV-I 0 W/m 1,9 C -1,2 C 20,9 km/h (4 Bft) 99,17 %
08.01.2016 07:05 4,2 C 85 % 1007,5 hPa 0,0 l/m 15,4 km/h (3 Bft) SW 236 0 min 0,000 mm 0,0 UV-I 0 W/m 1,9 C -2,1 C 22,5 km/h (4 Bft) 99,19 %
08.01.2016 07:10 4,3 C 84 % 1007,6 hPa 0,2 l/m 16,9 km/h (3 Bft) SW 236 0 min 0,000 mm 0,0 UV-I 0 W/m 1,8 C -2,7 C 27,4 km/h (4 Bft) 100,00 %
08.01.2016 07:15 4,3 C 84 % 1007,6 hPa 0,0 l/m 15,0 km/h (3 Bft) W-SW 244 0 min 0,000 mm 0,0 UV-I 0 W/m 1,8 C -1,8 C 20,9 km/h (4 Bft) 99,06 %
08.01.2016 07:20 4,4 C 84 % 1007,8 hPa 0,2 l/m 13,8 km/h (3 Bft) SW 221 0 min 0,000 mm 0,0 UV-I 0 W/m 1,9 C -1,0 C 19,3 km/h (3 Bft) 100,00 %
08.01.2016 07:25 4,4 C 84 % 1007,8 hPa 0,0 l/m 15,4 km/h (3 Bft) W-SW 252 0 min 0,000 mm 0,0 UV-I 0 W/m 1,9 C -1,9 C 24,1 km/h (4 Bft) 100,00 %
08.01.2016 07:30 4,5 C 83 % 1007,8 hPa 0,0 l/m 16,1 km/h (3 Bft) SW 224 0 min 0,000 mm 0,0 UV-I 0 W/m 1,9 C -2,1 C 25,7 km/h (4 Bft) 100,00 %
08.01.2016 07:35 4,5 C 83 % 1007,8 hPa 0,2 l/m 13,9 km/h (3 Bft) SW 227 0 min 0,000 mm 0,0 UV-I 0 W/m 1,9 C -0,9 C 24,1 km/h (4 Bft) 100,00 %
08.01.2016 07:40 4,4 C 83 % 1007,9 hPa 0,0 l/m 12,5 km/h (3 Bft) SW 231 0 min 0,000 mm 0,0 UV-I 0 W/m 1,8 C -0,2 C 22,5 km/h (4 Bft) 96,67 %
08.01.2016 07:45 4,4 C 83 % 1007,9 hPa 0,0 l/m 10,8 km/h (2 Bft) W-SW 243 0 min 0,000 mm 0,0 UV-I 0 W/m 1,8 C 0,8 C 14,5 km/h (3 Bft) 100,00 %
08.01.2016 07:55 4,1 C 85 % 1007,9 hPa 0,2 l/m 8,0 km/h (2 Bft) W 261 0 min 0,000 mm 0,0 UV-I 1 W/m 1,8 C 2,7 C 12,9 km/h (3 Bft) 97,21 %
08.01.2016 08:00 4,0 C 85 % 1008,0 hPa 0,0 l/m 8,4 km/h (2 Bft) S-SW 206 0 min 0,025 mm 0,0 UV-I 5 W/m 1,7 C 2,2 C 14,5 km/h (3 Bft) 98,06 %
08.01.2016 08:05 4,0 C 85 % 1008,0 hPa 0,0 l/m 8,4 km/h (2 Bft) S-SW 194 0 min 0,000 mm 0,0 UV-I 7 W/m 1,7 C 2,2 C 14,5 km/h (3 Bft) 95,74 %
08.01.2016 08:15 4,1 C 85 % 1008,2 hPa 0,0 l/m 9,1 km/h (2 Bft) SW 227 0 min 0,000 mm 0,0 UV-I 11 W/m 1,8 C 1,8 C 12,9 km/h (3 Bft) 97,79 %
08.01.2016 08:20 4,1 C 85 % 1008,3 hPa 0,2 l/m 8,8 km/h (2 Bft) W-SW 241 0 min 0,000 mm 0,0 UV-I 11 W/m 1,8 C 2,0 C 14,5 km/h (3 Bft) 99,15 %
08.01.2016 08:25 4,1 C 85 % 1008,3 hPa 0,0 l/m 8,7 km/h (2 Bft) SW 235 0 min 0,000 mm 0,0 UV-I 13 W/m 1,8 C 2,1 C 16,1 km/h (3 Bft) 99,12 %
08.01.2016 08:30 4,0 C 85 % 1008,4 hPa 0,0 l/m 10,0 km/h (2 Bft) S-SW 209 0 min 0,000 mm 0,0 UV-I 24 W/m 1,7 C 1,0 C 14,5 km/h (3 Bft) 98,46 %
08.01.2016 08:35 4,0 C 85 % 1008,5 hPa 0,0 l/m 10,3 km/h (2 Bft) S-SW 210 0 min 0,000 mm 0,0 UV-I 35 W/m 1,7 C 0,8 C 16,1 km/h (3 Bft) 98,11 %
08.01.2016 08:40 4,0 C 85 % 1008,6 hPa 0,0 l/m 10,6 km/h (2 Bft) SW 235 0 min 0,000 mm 0,0 UV-I 31 W/m 1,7 C 0,5 C 14,5 km/h (3 Bft) 100,00 %
08.01.2016 08:45 3,9 C 85 % 1008,7 hPa 0,0 l/m 10,2 km/h (2 Bft) SW 236 0 min 0,000 mm 0,0 UV-I 34 W/m 1,6 C 0,7 C 16,1 km/h (3 Bft) 99,15 %
08.01.2016 08:50 4,0 C 85 % 1008,7 hPa 0,0 l/m 11,8 km/h (2 Bft) SW 236 0 min 0,000 mm 0,0 UV-I 26 W/m 1,7 C -0,3 C 20,9 km/h (4 Bft) 98,39 %
08.01.2016 08:55 4,2 C 84 % 1008,9 hPa 0,2 l/m 14,2 km/h (3 Bft) W-SW 257 0 min 0,000 mm 0,0 UV-I 48 W/m 1,7 C -1,5 C 24,1 km/h (4 Bft) 99,08 %
08.01.2016 09:00 4,5 C 83 % 1008,9 hPa 0,0 l/m 14,7 km/h (3 Bft) W-SW 257 0 min 0,026 mm 0,0 UV-I 67 W/m 1,9 C -1,4 C 22,5 km/h (4 Bft) 100,00 %
08.01.2016 09:05 4,7 C 82 % 1008,9 hPa 0,0 l/m 13,8 km/h (3 Bft) W 275 0 min 0,000 mm 0,0 UV-I 54 W/m 1,9 C -0,6 C 24,1 km/h (4 Bft) 100,00 %
08.01.2016 09:10 4,8 C 82 % 1008,9 hPa 0,2 l/m 12,4 km/h (3 Bft) SW 232 5 min 0,000 mm 0,0 UV-I 97 W/m 2,0 C 0,3 C 19,3 km/h (3 Bft) 100,00 %
08.01.2016 09:15 4,9 C 80 % 1008,9 hPa 0,0 l/m 13,5 km/h (3 Bft) SW 215 0 min 0,000 mm 0,0 UV-I 89 W/m 1,7 C -0,2 C 22,5 km/h (4 Bft) 99,19 %
08.01.2016 09:20 5,0 C 80 % 1008,9 hPa 0,0 l/m 13,6 km/h (3 Bft) W-SW 256 5 min 0,000 mm 0,0 UV-I 119 W/m 1,8 C -0,2 C 20,9 km/h (4 Bft) 100,00 %
08.01.2016 09:25 5,1 C 79 % 1008,8 hPa 0,0 l/m 13,8 km/h (3 Bft) W 265 5 min 0,000 mm 0,0 UV-I 118 W/m 1,8 C -0,2 C 20,9 km/h (4 Bft) 99,15 %
08.01.2016 09:30 5,2 C 78 % 1008,9 hPa 0,2 l/m 12,5 km/h (3 Bft) W-NW 298 5 min 0,000 mm 0,0 UV-I 140 W/m 1,7 C 0,7 C 27,4 km/h (4 Bft) 100,00 %
08.01.2016 09:35 5,3 C 78 % 1009,0 hPa 0,0 l/m 13,3 km/h (3 Bft) W-SW 240 0 min 0,000 mm 0,0 UV-I 58 W/m 1,8 C 0,3 C 19,3 km/h (3 Bft) 100,00 %
08.01.2016 09:40 5,2 C 77 % 1009,1 hPa 0,0 l/m 15,1 km/h (3 Bft) SW 215 0 min 0,000 mm 0,0 UV-I 68 W/m 1,5 C -0,7 C 22,5 km/h (4 Bft) 97,44 %
08.01.2016 09:45 5,2 C 77 % 1009,1 hPa 0,0 l/m 14,1 km/h (3 Bft) SW 218 0 min 0,000 mm 0,0 UV-I 54 W/m 1,5 C -0,2 C 24,1 km/h (4 Bft) 100,00 %
08.01.2016 09:50 5,1 C 77 % 1009,1 hPa 0,2 l/m 14,6 km/h (3 Bft) W 261 0 min 0,000 mm 0,0 UV-I 52 W/m 1,4 C -0,6 C 20,9 km/h (4 Bft) 97,39 %
08.01.2016 09:55 4,9 C 78 % 1009,2 hPa 0,0 l/m 11,1 km/h (2 Bft) SW 221 0 min 0,000 mm 0,0 UV-I 100 W/m 1,4 C 1,2 C 19,3 km/h (3 Bft) 96,58 %
08.01.2016 10:00 4,9 C 78 % 1009,3 hPa 0,0 l/m 12,4 km/h (3 Bft) SW 214 5 min 0,050 mm 0,0 UV-I 151 W/m 1,4 C 0,4 C 20,9 km/h (4 Bft) 98,11 %
08.01.2016 10:05 4,8 C 79 % 1009,3 hPa 0,0 l/m 13,3 km/h (3 Bft) SW 223 5 min 0,000 mm 0,0 UV-I 197 W/m 1,5 C -0,2 C 19,3 km/h (3 Bft) 95,35 %
08.01.2016 10:10 4,9 C 79 % 1009,3 hPa 0,0 l/m 12,7 km/h (3 Bft) SW 232 5 min 0,000 mm 0,0 UV-I 198 W/m 1,6 C 0,2 C 19,3 km/h (3 Bft) 98,35 %
08.01.2016 10:15 4,9 C 79 % 1009,3 hPa 0,0 l/m 11,8 km/h (2 Bft) S-SW 211 5 min 0,000 mm 0,3 UV-I 215 W/m 1,6 C 0,8 C 17,7 km/h (3 Bft) 96,67 %
08.01.2016 10:20 5,1 C 79 % 1009,4 hPa 0,2 l/m 13,0 km/h (3 Bft) SW 236 5 min 0,000 mm 0,5 UV-I 199 W/m 1,8 C 0,3 C 19,3 km/h (3 Bft) 97,32 %
08.01.2016 10:25 5,3 C 78 % 1009,3 hPa 0,0 l/m 12,3 km/h (3 Bft) W-SW 239 5 min 0,000 mm 0,5 UV-I 231 W/m 1,8 C 0,9 C 19,3 km/h (3 Bft) 100,00 %
08.01.2016 10:30 5,6 C 77 % 1009,3 hPa 0,0 l/m 12,9 km/h (3 Bft) SW 230 5 min 0,000 mm 0,5 UV-I 241 W/m 1,9 C 0,9 C 20,9 km/h (4 Bft) 99,15 %
08.01.2016 10:35 5,9 C 75 % 1009,3 hPa 0,2 l/m 11,5 km/h (2 Bft) W-SW 250 5 min 0,000 mm 0,6 UV-I 249 W/m 1,8 C 2,1 C 20,9 km/h (4 Bft) 99,19 %
08.01.2016 10:40 5,8 C 76 % 1009,3 hPa 0,0 l/m 10,0 km/h (2 Bft) S-SW 193 5 min 0,000 mm 0,6 UV-I 253 W/m 1,9 C 3,0 C 20,9 km/h (4 Bft) 100,00 %
08.01.2016 10:45 5,7 C 77 % 1009,3 hPa 0,0 l/m 9,3 km/h (2 Bft) S 169 5 min 0,000 mm 0,6 UV-I 259 W/m 2,0 C 3,3 C 14,5 km/h (3 Bft) 99,17 %
08.01.2016 10:50 5,7 C 77 % 1009,3 hPa 0,0 l/m 8,0 km/h (2 Bft) SW 233 5 min 0,000 mm 0,6 UV-I 268 W/m 2,0 C 4,3 C 16,1 km/h (3 Bft) 99,13 %
08.01.2016 10:55 5,7 C 77 % 1009,3 hPa 0,0 l/m 8,9 km/h (2 Bft) S-SW 196 5 min 0,000 mm 0,6 UV-I 273 W/m 2,0 C 3,6 C 16,1 km/h (3 Bft) 98,26 %
08.01.2016 11:00 5,7 C 77 % 1009,3 hPa 0,0 l/m 8,8 km/h (2 Bft) S-SW 205 5 min 0,127 mm 0,7 UV-I 278 W/m 2,0 C 3,7 C 16,1 km/h (3 Bft) 100,00 %
08.01.2016 11:05 5,8 C 77 % 1009,4 hPa 0,0 l/m 8,4 km/h (2 Bft) SW 236 5 min 0,000 mm 0,7 UV-I 283 W/m 2,1 C 4,1 C 14,5 km/h (3 Bft) 98,21 %
08.01.2016 11:10 5,9 C 76 % 1009,4 hPa 0,2 l/m 6,2 km/h (2 Bft) W-SW 240 5 min 0,000 mm 0,7 UV-I 290 W/m 2,0 C 5,9 C 11,3 km/h (2 Bft) 100,00 %
08.01.2016 11:15 6,0 C 76 % 1009,4 hPa 0,0 l/m 8,6 km/h (2 Bft) SW 235 5 min 0,000 mm 0,7 UV-I 295 W/m 2,1 C 4,2 C 14,5 km/h (3 Bft) 98,37 %
08.01.2016 11:20 6,1 C 75 % 1009,2 hPa 0,0 l/m 7,3 km/h (2 Bft) SW 219 5 min 0,000 mm 0,8 UV-I 299 W/m 2,0 C 5,3 C 12,9 km/h (3 Bft) 99,11 %
08.01.2016 11:25 6,1 C 75 % 1009,1 hPa 0,0 l/m 6,6 km/h (2 Bft) W 263 5 min 0,000 mm 0,8 UV-I 303 W/m 2,0 C 6,0 C 14,5 km/h (3 Bft) 96,58 %
08.01.2016 11:30 6,2 C 75 % 1009,1 hPa 0,0 l/m 7,0 km/h (2 Bft) SW 229 5 min 0,000 mm 0,8 UV-I 314 W/m 2,1 C 5,7 C 12,9 km/h (3 Bft) 96,61 %
08.01.2016 11:35 6,2 C 75 % 1009,0 hPa 0,0 l/m 8,1 km/h (2 Bft) S-SW 209 5 min 0,000 mm 0,8 UV-I 315 W/m 2,1 C 4,8 C 12,9 km/h (3 Bft) 97,46 %
08.01.2016 11:40 6,2 C 75 % 1009,0 hPa 0,0 l/m 7,6 km/h (2 Bft) W-SW 252 5 min 0,000 mm 0,8 UV-I 315 W/m 2,1 C 5,2 C 16,1 km/h (3 Bft) 97,50 %
08.01.2016 11:45 6,1 C 75 % 1008,9 hPa 0,0 l/m 7,0 km/h (2 Bft) S-SW 198 0 min 0,000 mm 0,5 UV-I 155 W/m 2,0 C 5,6 C 12,9 km/h (3 Bft) 98,17 %
08.01.2016 11:50 5,8 C 76 % 1008,9 hPa 0,0 l/m 8,1 km/h (2 Bft) S 190 0 min 0,000 mm 0,7 UV-I 70 W/m 1,9 C 4,4 C 14,5 km/h (3 Bft) 99,19 %
08.01.2016 11:55 5,5 C 77 % 1008,9 hPa 0,0 l/m 4,5 km/h (1 Bft) S-SW 196 0 min 0,000 mm 0,7 UV-I 112 W/m 1,8 C 5,5 C 8,0 km/h (2 Bft) 98,15 %
08.01.2016 12:00 5,5 C 78 % 1008,9 hPa 0,0 l/m 5,5 km/h (1 Bft) S-SW 212 0 min 0,102 mm 0,6 UV-I 77 W/m 2,0 C 5,5 C 9,7 km/h (2 Bft) 98,35 %
08.01.2016 12:05 5,5 C 78 % 1008,9 hPa 0,0 l/m 6,5 km/h (2 Bft) S-SW 207 0 min 0,000 mm 0,8 UV-I 177 W/m 2,0 C 5,4 C 9,7 km/h (2 Bft) 98,37 %
08.01.2016 12:10 5,4 C 78 % 1009,0 hPa 0,0 l/m 6,0 km/h (2 Bft) S 186 0 min 0,000 mm 0,7 UV-I 126 W/m 1,9 C 5,4 C 9,7 km/h (2 Bft) 100,00 %
08.01.2016 12:15 5,6 C 78 % 1009,0 hPa 0,0 l/m 6,0 km/h (2 Bft) S-SO 152 0 min 0,000 mm 0,7 UV-I 117 W/m 2,1 C 5,6 C 11,3 km/h (2 Bft) 99,17 %
08.01.2016 12:20 5,6 C 78 % 1009,0 hPa 0,0 l/m 8,4 km/h (2 Bft) S 178 0 min 0,000 mm 0,7 UV-I 95 W/m 2,1 C 3,9 C 14,5 km/h (3 Bft) 100,00 %
08.01.2016 12:25 5,4 C 78 % 1008,9 hPa 0,0 l/m 7,1 km/h (2 Bft) SO 144 0 min 0,000 mm 0,7 UV-I 97 W/m 1,9 C 4,8 C 11,3 km/h (2 Bft) 100,00 %
08.01.2016 12:30 5,3 C 78 % 1009,0 hPa 0,0 l/m 9,2 km/h (2 Bft) S 173 0 min 0,000 mm 0,7 UV-I 79 W/m 1,8 C 3,0 C 14,5 km/h (3 Bft) 97,56 %
08.01.2016 12:35 5,3 C 78 % 1009,0 hPa 0,0 l/m 8,4 km/h (2 Bft) S-SW 207 0 min 0,000 mm 0,7 UV-I 87 W/m 1,8 C 3,6 C 14,5 km/h (3 Bft) 99,15 %
08.01.2016 12:40 5,2 C 78 % 1009,0 hPa 0,0 l/m 6,4 km/h (2 Bft) S 181 0 min 0,000 mm 0,7 UV-I 139 W/m 1,7 C 5,2 C 11,3 km/h (2 Bft) 99,11 %
08.01.2016 12:45 5,3 C 78 % 1009,0 hPa 0,0 l/m 7,4 km/h (2 Bft) S 182 0 min 0,000 mm 0,7 UV-I 83 W/m 1,8 C 4,4 C 11,3 km/h (2 Bft) 98,29 %
08.01.2016 12:50 5,2 C 78 % 1008,9 hPa 0,0 l/m 6,9 km/h (2 Bft) S 186 0 min 0,000 mm 0,6 UV-I 79 W/m 1,7 C 4,8 C 9,7 km/h (2 Bft) 100,00 %
08.01.2016 12:55 5,3 C 78 % 1008,9 hPa 0,0 l/m 6,5 km/h (2 Bft) S-SW 198 0 min 0,000 mm 0,6 UV-I 70 W/m 1,8 C 5,2 C 9,7 km/h (2 Bft) 99,11 %
08.01.2016 13:00 5,3 C 78 % 1009,0 hPa 0,0 l/m 5,1 km/h (1 Bft) S-SW 197 0 min 0,051 mm 0,6 UV-I 67 W/m 1,8 C 5,3 C 9,7 km/h (2 Bft) 99,15 %
08.01.2016 13:05 5,3 C 78 % 1009,0 hPa 0,0 l/m 5,1 km/h (1 Bft) S 188 0 min 0,000 mm 0,6 UV-I 67 W/m 1,8 C 5,3 C 9,7 km/h (2 Bft) 97,58 %
08.01.2016 13:10 5,2 C 78 % 1009,0 hPa 0,0 l/m 3,5 km/h (1 Bft) S 188 0 min 0,000 mm 0,6 UV-I 90 W/m 1,7 C 5,2 C 6,4 km/h (2 Bft) 96,43 %
08.01.2016 13:15 5,3 C 77 % 1008,9 hPa 0,0 l/m 4,4 km/h (1 Bft) S-SW 213 0 min 0,000 mm 0,6 UV-I 105 W/m 1,6 C 5,3 C 6,4 km/h (2 Bft) 94,87 %
08.01.2016 13:20 5,4 C 78 % 1008,8 hPa 0,0 l/m 1,4 km/h (1 Bft) S-SW 213 5 min 0,000 mm 0,7 UV-I 237 W/m 1,9 C 5,4 C 3,2 km/h (1 Bft) 97,52 %
08.01.2016 13:25 5,9 C 77 % 1008,7 hPa 0,0 l/m 2,3 km/h (1 Bft) W-SW 239 5 min 0,000 mm 0,7 UV-I 284 W/m 2,2 C 5,9 C 4,8 km/h (1 Bft) 97,37 %
08.01.2016 13:30 6,4 C 74 % 1008,7 hPa 0,0 l/m 3,0 km/h (1 Bft) S 190 5 min 0,000 mm 0,7 UV-I 278 W/m 2,1 C 6,4 C 6,4 km/h (2 Bft) 97,52 %
08.01.2016 13:35 6,7 C 73 % 1008,7 hPa 0,0 l/m 5,7 km/h (1 Bft) S-SW 213 5 min 0,000 mm 0,6 UV-I 273 W/m 2,2 C 6,7 C 9,7 km/h (2 Bft) 99,08 %
08.01.2016 13:40 6,9 C 72 % 1008,7 hPa 0,0 l/m 4,2 km/h (1 Bft) S-SW 198 5 min 0,000 mm 0,6 UV-I 268 W/m 2,2 C 6,9 C 9,7 km/h (2 Bft) 98,06 %
08.01.2016 13:45 7,1 C 71 % 1008,6 hPa 0,0 l/m 4,1 km/h (1 Bft) S 178 5 min 0,000 mm 0,6 UV-I 262 W/m 2,2 C 7,1 C 9,7 km/h (2 Bft) 100,00 %
08.01.2016 13:50 7,3 C 69 % 1008,5 hPa 0,0 l/m 5,7 km/h (1 Bft) W-SW 255 5 min 0,000 mm 0,6 UV-I 256 W/m 2,0 C 7,3 C 9,7 km/h (2 Bft) 100,00 %
08.01.2016 13:55 7,3 C 68 % 1008,4 hPa 0,0 l/m 4,7 km/h (1 Bft) W-SW 238 5 min 0,000 mm 0,5 UV-I 249 W/m 1,8 C 7,3 C 8,0 km/h (2 Bft) 100,00 %
08.01.2016 14:00 7,4 C 68 % 1008,3 hPa 0,0 l/m 5,4 km/h (1 Bft) SW 229 5 min 0,101 mm 0,5 UV-I 241 W/m 1,9 C 7,4 C 8,0 km/h (2 Bft) 99,13 %
08.01.2016 14:05 7,4 C 69 % 1008,3 hPa 0,0 l/m 4,0 km/h (1 Bft) SW 214 5 min 0,000 mm 0,5 UV-I 236 W/m 2,1 C 7,4 C 6,4 km/h (2 Bft) 100,00 %
08.01.2016 14:10 7,3 C 67 % 1008,2 hPa 0,0 l/m 4,0 km/h (1 Bft) SW 233 5 min 0,000 mm 0,4 UV-I 179 W/m 1,6 C 7,3 C 8,0 km/h (2 Bft) 97,32 %
08.01.2016 14:15 7,2 C 69 % 1008,1 hPa 0,0 l/m 3,5 km/h (1 Bft) W-SW 237 0 min 0,000 mm 0,0 UV-I 102 W/m 1,9 C 7,2 C 6,4 km/h (2 Bft) 97,39 %
08.01.2016 14:20 6,9 C 70 % 1008,2 hPa 0,0 l/m 3,9 km/h (1 Bft) SW 232 0 min 0,000 mm 0,0 UV-I 66 W/m 1,8 C 6,9 C 6,4 km/h (2 Bft) 98,33 %
08.01.2016 14:25 6,7 C 71 % 1008,1 hPa 0,0 l/m 3,5 km/h (1 Bft) W-SW 242 0 min 0,000 mm 0,0 UV-I 84 W/m 1,8 C 6,7 C 6,4 km/h (2 Bft) 98,21 %
08.01.2016 14:30 6,6 C 71 % 1008,0 hPa 0,0 l/m 3,6 km/h (1 Bft) W-SW 246 0 min 0,000 mm 0,0 UV-I 98 W/m 1,7 C 6,6 C 6,4 km/h (2 Bft) 99,17 %
08.01.2016 14:35 6,4 C 72 % 1008,0 hPa 0,0 l/m 2,3 km/h (1 Bft) W-SW 246 0 min 0,000 mm 0,0 UV-I 102 W/m 1,7 C 6,4 C 4,8 km/h (1 Bft) 98,33 %
08.01.2016 14:40 6,3 C 72 % 1008,0 hPa 0,0 l/m 1,8 km/h (1 Bft) W-SW 246 0 min 0,000 mm 0,0 UV-I 86 W/m 1,6 C 6,3 C 4,8 km/h (1 Bft) 97,39 %
08.01.2016 14:45 6,3 C 73 % 1008,0 hPa 0,0 l/m 1,5 km/h (1 Bft) W-SW 246 0 min 0,000 mm 0,0 UV-I 74 W/m 1,8 C 6,3 C 3,2 km/h (1 Bft) 95,83 %
08.01.2016 14:50 6,3 C 72 % 1007,8 hPa 0,0 l/m 0,2 km/h (0 Bft) W-SW 246 0 min 0,000 mm 0,0 UV-I 66 W/m 1,6 C 6,3 C 1,6 km/h (1 Bft) 98,17 %
08.01.2016 14:55 6,2 C 73 % 1007,9 hPa 0,0 l/m 0,0 km/h (0 Bft) W-SW 246 0 min 0,000 mm 0,0 UV-I 58 W/m 1,7 C 6,2 C 1,6 km/h (1 Bft) 96,85 %
08.01.2016 15:00 6,2 C 73 % 1007,9 hPa 0,0 l/m 1,0 km/h (0 Bft) W-SW 246 0 min 0,051 mm 0,0 UV-I 55 W/m 1,7 C 6,2 C 3,2 km/h (1 Bft) 96,30 %
08.01.2016 15:05 5,6 C 76 % 1007,9 hPa 0,0 l/m 1,6 km/h (1 Bft) W-SW 246 0 min 0,000 mm 0,0 UV-I 57 W/m 1,7 C 5,6 C 3,2 km/h (1 Bft) 96,61 %
08.01.2016 15:10 5,4 C 76 % 1007,9 hPa 0,0 l/m 2,6 km/h (1 Bft) N 355 0 min 0,000 mm 0,0 UV-I 54 W/m 1,5 C 5,4 C 4,8 km/h (1 Bft) 99,19 %
08.01.2016 15:15 5,8 C 74 % 1007,9 hPa 0,0 l/m 2,0 km/h (1 Bft) N 355 0 min 0,000 mm 0,0 UV-I 48 W/m 1,5 C 5,8 C 3,2 km/h (1 Bft) 100,00 %
08.01.2016 15:20 5,8 C 74 % 1007,8 hPa 0,0 l/m 1,1 km/h (1 Bft) N 355 0 min 0,000 mm 0,0 UV-I 42 W/m 1,5 C 5,8 C 3,2 km/h (1 Bft) 99,17 %
08.01.2016 15:25 5,4 C 76 % 1007,8 hPa 0,0 l/m 0,0 km/h (0 Bft) N 355 0 min 0,000 mm 0,0 UV-I 35 W/m 1,5 C 5,4 C 1,6 km/h (1 Bft) 100,00 %
08.01.2016 15:30 4,7 C 79 % 1007,7 hPa 0,0 l/m 0,1 km/h (0 Bft) N 355 0 min 0,000 mm 0,0 UV-I 28 W/m 1,4 C 4,7 C 1,6 km/h (1 Bft) 99,15 %
08.01.2016 15:35 4,7 C 79 % 1007,8 hPa 0,0 l/m 1,6 km/h (1 Bft) N 9 0 min 0,000 mm 0,0 UV-I 24 W/m 1,4 C 4,7 C 6,4 km/h (2 Bft) 100,00 %
08.01.2016 15:40 4,6 C 80 % 1007,9 hPa 0,0 l/m 0,0 km/h (0 Bft) N 9 0 min 0,000 mm 0,0 UV-I 20 W/m 1,5 C 4,6 C 1,6 km/h (1 Bft) 99,24 %
08.01.2016 15:45 4,7 C 80 % 1008,0 hPa 0,0 l/m 0,4 km/h (0 Bft) N 9 0 min 0,000 mm 0,0 UV-I 17 W/m 1,6 C 4,7 C 1,6 km/h (1 Bft) 100,00 %
08.01.2016 15:50 4,3 C 82 % 1008,0 hPa 0,0 l/m 0,0 km/h (0 Bft) N 9 0 min 0,000 mm 0,0 UV-I 15 W/m 1,5 C 4,3 C 1,6 km/h (1 Bft) 100,00 %
08.01.2016 15:55 4,1 C 83 % 1008,0 hPa 0,0 l/m 0,0 km/h (0 Bft) N 9 0 min 0,000 mm 0,0 UV-I 11 W/m 1,5 C 4,1 C 1,6 km/h (1 Bft) 98,29 %
08.01.2016 16:00 4,8 C 79 % 1007,9 hPa 0,0 l/m 0,0 km/h (0 Bft) N 9 0 min 0,026 mm 0,0 UV-I 9 W/m 1,5 C 4,8 C 1,6 km/h (1 Bft) 99,11 %
08.01.2016 16:05 4,9 C 77 % 1007,7 hPa 0,0 l/m 0,1 km/h (0 Bft) N 9 0 min 0,000 mm 0,0 UV-I 8 W/m 1,2 C 4,9 C 1,6 km/h (1 Bft) 99,15 %
08.01.2016 16:10 4,9 C 77 % 1007,6 hPa 0,0 l/m 0,4 km/h (0 Bft) N-NO 20 0 min 0,000 mm 0,0 UV-I 7 W/m 1,2 C 4,9 C 3,2 km/h (1 Bft) 100,00 %
08.01.2016 16:15 4,7 C 78 % 1007,4 hPa 0,0 l/m 4,2 km/h (1 Bft) NO 50 0 min 0,000 mm 0,0 UV-I 7 W/m 1,2 C 4,7 C 6,4 km/h (2 Bft) 100,00 %
08.01.2016 16:20 3,9 C 82 % 1007,6 hPa 0,0 l/m 5,2 km/h (1 Bft) O-SO 107 0 min 0,000 mm 0,0 UV-I 6 W/m 1,1 C 3,9 C 6,4 km/h (2 Bft) 99,10 %
08.01.2016 16:25 3,4 C 84 % 1007,9 hPa 0,0 l/m 2,8 km/h (1 Bft) O-SO 107 0 min 0,000 mm 0,0 UV-I 2 W/m 1,0 C 3,4 C 6,4 km/h (2 Bft) 99,21 %
08.01.2016 16:30 3,4 C 85 % 1007,9 hPa 0,0 l/m 0,1 km/h (0 Bft) O-SO 107 0 min 0,000 mm 0,0 UV-I 0 W/m 1,1 C 3,4 C 1,6 km/h (1 Bft) 100,00 %
08.01.2016 16:35 3,6 C 84 % 1007,7 hPa 0,0 l/m 2,0 km/h (1 Bft) NO 38 0 min 0,000 mm 0,0 UV-I 0 W/m 1,2 C 3,6 C 6,4 km/h (2 Bft) 100,00 %
08.01.2016 16:40 3,6 C 83 % 1007,7 hPa 0,0 l/m 5,2 km/h (1 Bft) NO 56 0 min 0,000 mm 0,0 UV-I 0 W/m 1,0 C 3,6 C 6,4 km/h (2 Bft) 100,00 %
08.01.2016 16:45 3,7 C 83 % 1007,6 hPa 0,0 l/m 5,3 km/h (1 Bft) O-NO 67 0 min 0,000 mm 0,0 UV-I 0 W/m 1,1 C 3,7 C 8,0 km/h (2 Bft) 100,00 %
08.01.2016 16:50 3,5 C 84 % 1007,7 hPa 0,0 l/m 3,7 km/h (1 Bft) O-NO 78 0 min 0,000 mm 0,0 UV-I 0 W/m 1,1 C 3,5 C 6,4 km/h (2 Bft) 98,37 %
08.01.2016 16:55 3,5 C 84 % 1007,5 hPa 0,0 l/m 5,2 km/h (1 Bft) O-NO 58 0 min 0,000 mm 0,0 UV-I 0 W/m 1,1 C 3,5 C 8,0 km/h (2 Bft) 99,17 %
08.01.2016 17:00 3,9 C 82 % 1007,6 hPa 0,0 l/m 4,3 km/h (1 Bft) O-NO 57 0 min 0,000 mm 0,0 UV-I 0 W/m 1,1 C 3,9 C 6,4 km/h (2 Bft) 96,58 %
08.01.2016 17:05 3,9 C 82 % 1007,5 hPa 0,0 l/m 5,0 km/h (1 Bft) O-NO 67 0 min 0,000 mm 0,0 UV-I 0 W/m 1,1 C 3,9 C 8,0 km/h (2 Bft) 96,61 %
08.01.2016 17:10 3,3 C 84 % 1007,6 hPa 0,0 l/m 5,6 km/h (1 Bft) O 92 0 min 0,000 mm 0,0 UV-I 0 W/m 0,9 C 3,3 C 12,9 km/h (3 Bft) 94,92 %
08.01.2016 17:15 3,3 C 84 % 1007,6 hPa 0,0 l/m 4,8 km/h (1 Bft) O 96 0 min 0,000 mm 0,0 UV-I 0 W/m 0,9 C 3,3 C 4,8 km/h (1 Bft) 100,00 %
08.01.2016 17:25 3,4 C 84 % 1007,5 hPa 0,0 l/m 3,5 km/h (1 Bft) O-NO 72 0 min 0,000 mm 0,0 UV-I 0 W/m 1,0 C 3,4 C 4,8 km/h (1 Bft) 97,32 %
08.01.2016 17:30 3,7 C 83 % 1007,6 hPa 0,0 l/m 2,9 km/h (1 Bft) O-NO 72 0 min 0,000 mm 0,0 UV-I 0 W/m 1,1 C 3,7 C 6,4 km/h (2 Bft) 97,44 %
08.01.2016 17:35 3,7 C 83 % 1007,6 hPa 0,0 l/m 1,7 km/h (1 Bft) O-NO 71 0 min 0,000 mm 0,0 UV-I 0 W/m 1,1 C 3,7 C 4,8 km/h (1 Bft) 98,28 %
08.01.2016 17:40 3,2 C 84 % 1007,7 hPa 0,0 l/m 3,1 km/h (1 Bft) O 86 0 min 0,000 mm 0,0 UV-I 0 W/m 0,8 C 3,2 C 6,4 km/h (2 Bft) 99,17 %
08.01.2016 17:45 2,9 C 86 % 1007,6 hPa 0,0 l/m 3,7 km/h (1 Bft) O 84 0 min 0,000 mm 0,0 UV-I 0 W/m 0,8 C 2,9 C 6,4 km/h (2 Bft) 98,35 %
08.01.2016 17:50 3,3 C 85 % 1007,6 hPa 0,0 l/m 5,0 km/h (1 Bft) NO 56 0 min 0,000 mm 0,0 UV-I 0 W/m 1,0 C 3,3 C 8,0 km/h (2 Bft) 97,25 %
08.01.2016 17:55 4,0 C 82 % 1007,5 hPa 0,0 l/m 3,4 km/h (1 Bft) O 82 0 min 0,000 mm 0,0 UV-I 0 W/m 1,2 C 4,0 C 6,4 km/h (2 Bft) 100,00 %
08.01.2016 18:00 3,9 C 82 % 1007,5 hPa 0,0 l/m 4,6 km/h (1 Bft) O-SO 112 0 min 0,000 mm 0,0 UV-I 0 W/m 1,1 C 3,9 C 9,7 km/h (2 Bft) 97,52 %
08.01.2016 18:05 3,3 C 84 % 1007,6 hPa 0,0 l/m 2,2 km/h (1 Bft) SO 146 0 min 0,000 mm 0,0 UV-I 0 W/m 0,9 C 3,3 C 4,8 km/h (1 Bft) 99,11 %
08.01.2016 18:10 3,2 C 85 % 1007,6 hPa 0,0 l/m 3,8 km/h (1 Bft) SO 130 0 min 0,000 mm 0,0 UV-I 0 W/m 0,9 C 3,2 C 8,0 km/h (2 Bft) 100,00 %
08.01.2016 18:15 3,1 C 85 % 1007,5 hPa 0,0 l/m 3,4 km/h (1 Bft) SO 126 0 min 0,000 mm 0,0 UV-I 0 W/m 0,8 C 3,1 C 6,4 km/h (2 Bft) 100,00 %
08.01.2016 18:20 3,2 C 85 % 1007,4 hPa 0,0 l/m 7,1 km/h (2 Bft) O-SO 105 0 min 0,000 mm 0,0 UV-I 0 W/m 0,9 C 2,5 C 12,9 km/h (3 Bft) 99,15 %
08.01.2016 18:25 3,3 C 84 % 1007,4 hPa 0,0 l/m 7,9 km/h (2 Bft) O 101 0 min 0,000 mm 0,0 UV-I 0 W/m 0,9 C 1,9 C 14,5 km/h (3 Bft) 98,29 %
08.01.2016 18:30 3,7 C 83 % 1007,4 hPa 0,0 l/m 6,9 km/h (2 Bft) O-NO 74 0 min 0,000 mm 0,0 UV-I 0 W/m 1,1 C 3,2 C 11,3 km/h (2 Bft) 100,00 %
08.01.2016 18:35 3,9 C 82 % 1007,5 hPa 0,0 l/m 7,2 km/h (2 Bft) O-SO 109 0 min 0,000 mm 0,0 UV-I 0 W/m 1,1 C 3,2 C 11,3 km/h (2 Bft) 100,00 %
08.01.2016 18:40 4,0 C 81 % 1007,6 hPa 0,0 l/m 3,5 km/h (1 Bft) O-SO 105 0 min 0,000 mm 0,0 UV-I 0 W/m 1,0 C 4,0 C 9,7 km/h (2 Bft) 98,35 %
08.01.2016 18:45 3,6 C 83 % 1007,6 hPa 0,0 l/m 2,5 km/h (1 Bft) O-SO 112 0 min 0,000 mm 0,0 UV-I 0 W/m 1,0 C 3,6 C 8,0 km/h (2 Bft) 99,19 %
08.01.2016 18:50 2,9 C 85 % 1007,6 hPa 0,0 l/m 4,5 km/h (1 Bft) O 101 0 min 0,000 mm 0,0 UV-I 0 W/m 0,6 C 2,9 C 9,7 km/h (2 Bft) 97,39 %
08.01.2016 18:55 3,5 C 83 % 1007,5 hPa 0,0 l/m 3,0 km/h (1 Bft) O-NO 72 0 min 0,000 mm 0,0 UV-I 0 W/m 0,9 C 3,5 C 8,0 km/h (2 Bft) 99,08 %
08.01.2016 19:00 3,0 C 85 % 1007,3 hPa 0,0 l/m 2,4 km/h (1 Bft) O-NO 72 0 min 0,000 mm 0,0 UV-I 0 W/m 0,7 C 3,0 C 4,8 km/h (1 Bft) 100,00 %
08.01.2016 19:05 3,2 C 85 % 1007,1 hPa 0,0 l/m 5,5 km/h (1 Bft) O 84 0 min 0,000 mm 0,0 UV-I 0 W/m 0,9 C 3,2 C 8,0 km/h (2 Bft) 99,11 %
08.01.2016 19:10 3,1 C 85 % 1007,1 hPa 0,0 l/m 7,0 km/h (2 Bft) O 93 0 min 0,000 mm 0,0 UV-I 0 W/m 0,8 C 2,5 C 11,3 km/h (2 Bft) 100,00 %
08.01.2016 19:15 3,7 C 83 % 1007,0 hPa 0,0 l/m 4,2 km/h (1 Bft) O 87 0 min 0,000 mm 0,0 UV-I 0 W/m 1,1 C 3,7 C 8,0 km/h (2 Bft) 98,25 %
08.01.2016 19:20 3,2 C 84 % 1006,9 hPa 0,0 l/m 2,0 km/h (1 Bft) O 86 0 min 0,000 mm 0,0 UV-I 0 W/m 0,8 C 3,2 C 3,2 km/h (1 Bft) 99,08 %
08.01.2016 19:25 2,7 C 86 % 1006,9 hPa 0,0 l/m 0,6 km/h (0 Bft) O 89 0 min 0,000 mm 0,0 UV-I 0 W/m 0,6 C 2,7 C 3,2 km/h (1 Bft) 97,58 %
08.01.2016 19:30 2,7 C 87 % 1006,9 hPa 0,0 l/m 1,1 km/h (1 Bft) O 89 0 min 0,000 mm 0,0 UV-I 0 W/m 0,8 C 2,7 C 3,2 km/h (1 Bft) 97,44 %
08.01.2016 19:35 2,7 C 87 % 1006,7 hPa 0,0 l/m 1,1 km/h (1 Bft) O 89 0 min 0,000 mm 0,0 UV-I 0 W/m 0,8 C 2,7 C 3,2 km/h (1 Bft) 96,77 %
08.01.2016 19:40 2,7 C 87 % 1006,7 hPa 0,0 l/m 1,0 km/h (0 Bft) O 89 0 min 0,000 mm 0,0 UV-I 0 W/m 0,8 C 2,7 C 3,2 km/h (1 Bft) 98,20 %
08.01.2016 19:45 2,9 C 86 % 1006,7 hPa 0,0 l/m 2,2 km/h (1 Bft) O 89 0 min 0,000 mm 0,0 UV-I 0 W/m 0,8 C 2,9 C 3,2 km/h (1 Bft) 96,61 %
08.01.2016 19:50 2,9 C 86 % 1006,8 hPa 0,0 l/m 0,9 km/h (0 Bft) O 89 0 min 0,000 mm 0,0 UV-I 0 W/m 0,8 C 2,9 C 1,6 km/h (1 Bft) 96,69 %
08.01.2016 19:55 2,3 C 88 % 1006,7 hPa 0,0 l/m 0,0 km/h (0 Bft) O 89 0 min 0,000 mm 0,0 UV-I 0 W/m 0,5 C 2,3 C 1,6 km/h (1 Bft) 96,40 %
08.01.2016 20:00 2,1 C 89 % 1006,7 hPa 0,0 l/m 0,0 km/h (0 Bft) O 89 0 min 0,000 mm 0,0 UV-I 0 W/m 0,5 C 2,1 C 0,0 km/h (0 Bft) 99,19 %
08.01.2016 20:05 2,1 C 90 % 1006,7 hPa 0,0 l/m 1,0 km/h (0 Bft) O 89 0 min 0,000 mm 0,0 UV-I 0 W/m 0,6 C 2,1 C 3,2 km/h (1 Bft) 98,20 %
08.01.2016 20:10 2,3 C 89 % 1006,7 hPa 0,0 l/m 1,3 km/h (1 Bft) O-NO 60 0 min 0,000 mm 0,0 UV-I 0 W/m 0,7 C 2,3 C 3,2 km/h (1 Bft) 100,00 %
08.01.2016 20:15 2,0 C 89 % 1006,7 hPa 0,0 l/m 0,2 km/h (0 Bft) O-NO 60 0 min 0,000 mm 0,0 UV-I 0 W/m 0,4 C 2,0 C 1,6 km/h (1 Bft) 99,13 %
08.01.2016 20:20 2,0 C 90 % 1006,5 hPa 0,0 l/m 3,7 km/h (1 Bft) NO 51 0 min 0,000 mm 0,0 UV-I 0 W/m 0,5 C 2,0 C 6,4 km/h (2 Bft) 100,00 %
08.01.2016 20:25 2,3 C 89 % 1006,6 hPa 0,0 l/m 4,4 km/h (1 Bft) N-NO 30 0 min 0,000 mm 0,0 UV-I 0 W/m 0,7 C 2,3 C 6,4 km/h (2 Bft) 99,19 %
08.01.2016 20:30 2,3 C 89 % 1006,6 hPa 0,0 l/m 3,1 km/h (1 Bft) N-NO 26 0 min 0,000 mm 0,0 UV-I 0 W/m 0,7 C 2,3 C 6,4 km/h (2 Bft) 99,13 %
08.01.2016 20:35 2,3 C 89 % 1006,5 hPa 0,0 l/m 2,2 km/h (1 Bft) N-NO 32 0 min 0,000 mm 0,0 UV-I 0 W/m 0,7 C 2,3 C 4,8 km/h (1 Bft) 100,00 %
08.01.2016 20:40 2,4 C 88 % 1006,6 hPa 0,0 l/m 4,0 km/h (1 Bft) N-NO 29 0 min 0,000 mm 0,0 UV-I 0 W/m 0,6 C 2,4 C 4,8 km/h (1 Bft) 100,00 %
08.01.2016 20:45 2,3 C 88 % 1006,6 hPa 0,0 l/m 2,4 km/h (1 Bft) N 10 0 min 0,000 mm 0,0 UV-I 0 W/m 0,5 C 2,3 C 6,4 km/h (2 Bft) 99,17 %
08.01.2016 20:50 2,3 C 89 % 1006,5 hPa 0,0 l/m 2,7 km/h (1 Bft) N-NO 32 0 min 0,000 mm 0,0 UV-I 0 W/m 0,7 C 2,3 C 4,8 km/h (1 Bft) 99,08 %
08.01.2016 20:55 2,3 C 89 % 1006,3 hPa 0,0 l/m 3,8 km/h (1 Bft) NO 38 0 min 0,000 mm 0,0 UV-I 0 W/m 0,7 C 2,3 C 6,4 km/h (2 Bft) 100,00 %
08.01.2016 21:00 2,2 C 89 % 1006,4 hPa 0,0 l/m 4,1 km/h (1 Bft) NO 50 0 min 0,000 mm 0,0 UV-I 0 W/m 0,6 C 2,2 C 6,4 km/h (2 Bft) 99,10 %
08.01.2016 21:05 2,1 C 90 % 1006,3 hPa 0,0 l/m 3,1 km/h (1 Bft) NO 50 0 min 0,000 mm 0,0 UV-I 0 W/m 0,6 C 2,1 C 4,8 km/h (1 Bft) 99,19 %
08.01.2016 21:10 2,2 C 90 % 1006,3 hPa 0,0 l/m 2,8 km/h (1 Bft) NO 50 0 min 0,000 mm 0,0 UV-I 0 W/m 0,7 C 2,2 C 4,8 km/h (1 Bft) 100,00 %
08.01.2016 21:15 2,1 C 89 % 1006,2 hPa 0,0 l/m 2,6 km/h (1 Bft) NO 49 0 min 0,000 mm 0,0 UV-I 0 W/m 0,5 C 2,1 C 3,2 km/h (1 Bft) 99,17 %
08.01.2016 21:20 2,0 C 90 % 1006,1 hPa 0,0 l/m 3,4 km/h (1 Bft) NO 41 0 min 0,000 mm 0,0 UV-I 0 W/m 0,5 C 2,0 C 4,8 km/h (1 Bft) 98,31 %
08.01.2016 21:25 2,0 C 90 % 1005,9 hPa 0,0 l/m 5,7 km/h (1 Bft) NO 53 0 min 0,000 mm 0,0 UV-I 0 W/m 0,5 C 2,0 C 8,0 km/h (2 Bft) 100,00 %
08.01.2016 21:30 2,1 C 90 % 1005,9 hPa 0,0 l/m 4,4 km/h (1 Bft) NO 48 0 min 0,000 mm 0,0 UV-I 0 W/m 0,6 C 2,1 C 8,0 km/h (2 Bft) 99,12 %
08.01.2016 21:35 1,8 C 90 % 1005,9 hPa 0,0 l/m 3,0 km/h (1 Bft) NO 49 0 min 0,000 mm 0,0 UV-I 0 W/m 0,3 C 1,8 C 4,8 km/h (1 Bft) 100,00 %
08.01.2016 21:40 1,7 C 91 % 1006,0 hPa 0,0 l/m 1,5 km/h (1 Bft) NO 49 0 min 0,000 mm 0,0 UV-I 0 W/m 0,4 C 1,7 C 3,2 km/h (1 Bft) 97,50 %
08.01.2016 21:45 1,8 C 91 % 1006,0 hPa 0,0 l/m 3,1 km/h (1 Bft) O-NO 60 0 min 0,000 mm 0,0 UV-I 0 W/m 0,5 C 1,8 C 6,4 km/h (2 Bft) 97,52 %
08.01.2016 21:50 1,9 C 90 % 1005,8 hPa 0,0 l/m 3,4 km/h (1 Bft) NO 50 0 min 0,000 mm 0,0 UV-I 0 W/m 0,4 C 1,9 C 6,4 km/h (2 Bft) 97,25 %
08.01.2016 21:55 2,0 C 89 % 1005,7 hPa 0,0 l/m 2,0 km/h (1 Bft) NO 49 0 min 0,000 mm 0,0 UV-I 0 W/m 0,4 C 2,0 C 4,8 km/h (1 Bft) 97,50 %
08.01.2016 22:00 1,8 C 90 % 1005,6 hPa 0,0 l/m 2,6 km/h (1 Bft) NO 55 0 min 0,000 mm 0,0 UV-I 0 W/m 0,3 C 1,8 C 4,8 km/h (1 Bft) 95,97 %
08.01.2016 22:05 1,7 C 90 % 1005,8 hPa 0,0 l/m 2,0 km/h (1 Bft) O 79 0 min 0,000 mm 0,0 UV-I 0 W/m 0,2 C 1,7 C 4,8 km/h (1 Bft) 97,37 %
08.01.2016 22:10 1,2 C 91 % 1005,9 hPa 0,0 l/m 0,0 km/h (0 Bft) O 79 0 min 0,000 mm 0,0 UV-I 0 W/m -0,1 C 1,2 C 1,6 km/h (1 Bft) 97,50 %
08.01.2016 22:15 0,9 C 93 % 1005,9 hPa 0,0 l/m 0,4 km/h (0 Bft) O-NO 78 0 min 0,000 mm 0,0 UV-I 0 W/m -0,1 C 0,9 C 4,8 km/h (1 Bft) 98,31 %
08.01.2016 22:20 0,9 C 94 % 1005,7 hPa 0,0 l/m 0,3 km/h (0 Bft) O-NO 78 0 min 0,000 mm 0,0 UV-I 0 W/m 0,0 C 0,9 C 1,6 km/h (1 Bft) 99,12 %
08.01.2016 22:25 1,2 C 93 % 1005,7 hPa 0,0 l/m 1,2 km/h (1 Bft) O-NO 78 0 min 0,000 mm 0,0 UV-I 0 W/m 0,2 C 1,2 C 3,2 km/h (1 Bft) 100,00 %
08.01.2016 22:30 1,3 C 93 % 1005,7 hPa 0,0 l/m 1,8 km/h (1 Bft) O-NO 78 0 min 0,000 mm 0,0 UV-I 0 W/m 0,3 C 1,3 C 4,8 km/h (1 Bft) 99,15 %
08.01.2016 22:35 1,3 C 93 % 1005,8 hPa 0,0 l/m 0,8 km/h (0 Bft) O-NO 78 0 min 0,000 mm 0,0 UV-I 0 W/m 0,3 C 1,3 C 3,2 km/h (1 Bft) 99,12 %
08.01.2016 22:40 1,2 C 92 % 1005,7 hPa 0,0 l/m 0,2 km/h (0 Bft) O-NO 78 0 min 0,000 mm 0,0 UV-I 0 W/m 0,0 C 1,2 C 1,6 km/h (1 Bft) 100,00 %
08.01.2016 22:45 1,2 C 93 % 1005,5 hPa 0,0 l/m 0,2 km/h (0 Bft) O-NO 78 0 min 0,000 mm 0,0 UV-I 0 W/m 0,2 C 1,2 C 1,6 km/h (1 Bft) 99,15 %
08.01.2016 22:50 1,2 C 92 % 1005,6 hPa 0,0 l/m 0,3 km/h (0 Bft) O-NO 78 0 min 0,000 mm 0,0 UV-I 0 W/m 0,0 C 1,2 C 1,6 km/h (1 Bft) 99,12 %
08.01.2016 22:55 0,9 C 93 % 1005,7 hPa 0,0 l/m 0,6 km/h (0 Bft) O 80 0 min 0,000 mm 0,0 UV-I 0 W/m -0,1 C 0,9 C 3,2 km/h (1 Bft) 100,00 %
08.01.2016 23:00 0,8 C 93 % 1005,7 hPa 0,0 l/m 4,7 km/h (1 Bft) S-SW 201 0 min 0,000 mm 0,0 UV-I 0 W/m -0,2 C 0,8 C 6,4 km/h (2 Bft) 100,00 %
08.01.2016 23:05 0,8 C 94 % 1005,6 hPa 0,0 l/m 2,2 km/h (1 Bft) S-SW 201 0 min 0,000 mm 0,0 UV-I 0 W/m -0,1 C 0,8 C 4,8 km/h (1 Bft) 98,39 %
08.01.2016 23:10 0,8 C 94 % 1005,6 hPa 0,0 l/m 1,8 km/h (1 Bft) S-SW 201 0 min 0,000 mm 0,0 UV-I 0 W/m -0,1 C 0,8 C 3,2 km/h (1 Bft) 100,00 %
08.01.2016 23:15 0,9 C 94 % 1005,6 hPa 0,0 l/m 0,5 km/h (0 Bft) S-SW 201 0 min 0,000 mm 0,0 UV-I 0 W/m 0,0 C 0,9 C 3,2 km/h (1 Bft) 99,17 %
08.01.2016 23:20 1,1 C 93 % 1005,6 hPa 0,0 l/m 0,0 km/h (0 Bft) S-SW 201 0 min 0,000 mm 0,0 UV-I 0 W/m 0,1 C 1,1 C 1,6 km/h (1 Bft) 99,08 %
08.01.2016 23:25 0,9 C 94 % 1005,6 hPa 0,0 l/m 1,6 km/h (1 Bft) S-SW 201 0 min 0,000 mm 0,0 UV-I 0 W/m 0,0 C 0,9 C 3,2 km/h (1 Bft) 100,00 %
08.01.2016 23:30 1,2 C 94 % 1005,7 hPa 0,0 l/m 1,1 km/h (1 Bft) S-SW 201 0 min 0,000 mm 0,0 UV-I 0 W/m 0,3 C 1,2 C 3,2 km/h (1 Bft) 100,00 %
08.01.2016 23:35 0,9 C 93 % 1005,7 hPa 0,0 l/m 1,1 km/h (1 Bft) S-SW 201 0 min 0,000 mm 0,0 UV-I 0 W/m -0,1 C 0,9 C 3,2 km/h (1 Bft) 99,17 %
08.01.2016 23:40 0,7 C 94 % 1005,6 hPa 0,0 l/m 0,2 km/h (0 Bft) S-SW 201 0 min 0,000 mm 0,0 UV-I 0 W/m -0,2 C 0,7 C 1,6 km/h (1 Bft) 99,10 %
08.01.2016 23:45 0,7 C 94 % 1005,6 hPa 0,0 l/m 0,1 km/h (0 Bft) S-SW 201 0 min 0,000 mm 0,0 UV-I 0 W/m -0,2 C 0,7 C 1,6 km/h (1 Bft) 100,00 %
08.01.2016 23:50 0,7 C 94 % 1005,5 hPa 0,0 l/m 0,5 km/h (0 Bft) S-SW 201 0 min 0,000 mm 0,0 UV-I 0 W/m -0,2 C 0,7 C 1,6 km/h (1 Bft) 99,13 %
08.01.2016 23:55 0,6 C 94 % 1005,4 hPa 0,0 l/m 1,0 km/h (0 Bft) S-SW 201 0 min 0,000 mm 0,0 UV-I 0 W/m -0,3 C 0,6 C 3,2 km/h (1 Bft) 98,29 %
_ Min-Zeit 00:00 14:10 00:05 - 14:55 - - - - - - 23:55 05:05 20:00 13:15
Minimum _ 0,2 C 67 % 1002,8 hPa - 0,0 km/h (0 Bft) - - - - - - -0,3 C -4,2 C 0,0 km/h (0 Bft) 94,87 %
_ Max-Zeit 14:00 00:00 10:20 03:00 05:05 - - 09:10 11:00 11:20 11:35 02:50 14:00 05:00 00:00
Maximum _ 7,4 C 99 % 1009,4 hPa 0,2 l/m 18,7 km/h
W-SW (3 Bft)
- - 5 min 0,127 mm 0,8 UV-I 315 W/m 2,9 C 7,4 C 27,4 km/h
SW (4 Bft)
100,00 %
Durchschnitt _ 3,6 C 86 % 1007,0 hPa #5,2 l/m 6,5 km/h (2 Bft) SW - #3:00 h #0,610 mm 0,6 UV-I 121 W/m 1,3 C 1,8 C 10,9 km/h (2 Bft) 98,64 %